Location: Unspecified
(29.9680°N, 0.0000°E)
Time: 06:37:22
(UTC+00:00)

Vanguard 1 Rocket - Pass Details

Date: 22 June 2019
Orbit: 651 x 4225 km, 34.3° (Epoch: 16 July)

Event Time Altitude Azimuth Distance (km) Brightness Sun altitude
Rises 22:30:26 0° 288° (WNW) 4,547 11.5 -32.2°
Reaches altitude 10° 22:34:09 10° 285° (WNW) 3,099 10.5 -32.6°
Enters shadow 22:38:31 35° 270° (W) 1,444 8.5 -33.0°
